Location: San Martino di Castrozza
(46.2667°N, 11.8000°E)
Time: 16:41:16
(UTC+00:00)

ATLAS 5 CENTAUR R/B - Pass Details

Date: 23 April 2021
Orbit: 516 x 1141 km, 63.3° (Epoch: 02 May)

Event Time Altitude Azimuth Distance (km) Brightness Sun altitude
Rises 01:02:28 0° 316° (NW) 3,290 5.5 -26.1°
Reaches altitude 10° 01:04:49 10° 310° (NW) 2,451 4.7 -25.9°
Enters shadow 01:08:33 36° 279° (W) 1,393 3.1 -25.5°
